Time,TemperatureF,DewpointF,PressureIn,WindDirection,WindDirectionDegrees,WindSpeedMPH,WindSpeedGustMPH,Humidity,HourlyPrecipIn,Conditions,Clouds,dailyrainin,SoftwareType,DateUTC
2013-07-02 00:09:00,71.4,70.0,29.99,SSW,193,4.0,7.0,96,0.00,,,0.60,weatherlink.com 1.10,2013-07-02 04:09:00,
2013-07-02 00:24:00,71.3,70.0,29.99,SSW,192,3.0,6.0,96,0.00,,,0.60,weatherlink.com 1.10,2013-07-02 04:24:00,
2013-07-02 00:39:00,71.2,70.0,29.99,South,188,3.0,7.0,96,0.00,,,0.60,weatherlink.com 1.10,2013-07-02 04:39:00,
2013-07-02 00:54:00,71.1,70.0,29.99,South,182,3.0,6.0,96,0.00,,,0.60,weatherlink.com 1.10,2013-07-02 04:54:00,
2013-07-02 01:09:00,71.1,70.0,30.00,SSW,213,5.0,6.0,96,0.00,,,0.60,weatherlink.com 1.10,2013-07-02 05:09:00,
2013-07-02 01:24:00,71.2,70.0,29.99,SSW,209,6.0,8.0,96,0.00,,,0.60,weatherlink.com 1.10,2013-07-02 05:24:00,
2013-07-02 01:39:00,71.5,70.0,29.99,WSW,238,8.0,10.0,96,0.00,,,0.60,weatherlink.com 1.10,2013-07-02 05:39:00,
2013-07-02 01:54:00,71.7,71.0,30.00,SW,215,4.0,10.0,96,0.00,,,0.60,weatherlink.com 1.10,2013-07-02 05:54:00,
2013-07-02 02:09:00,71.6,70.0,30.00,SSW,209,4.0,8.0,96,0.00,,,0.60,weatherlink.com 1.10,2013-07-02 06:09:00,
2013-07-02 02:24:00,71.5,70.0,29.99,South,181,2.0,7.0,96,0.00,,,0.60,weatherlink.com 1.10,2013-07-02 06:24:00,
2013-07-02 02:39:00,71.4,71.0,29.99,South,191,4.0,7.0,97,0.00,,,0.60,weatherlink.com 1.10,2013-07-02 06:39:00,
2013-07-02 02:54:00,71.4,71.0,29.99,South,169,3.0,7.0,97,0.00,,,0.60,weatherlink.com 1.10,2013-07-02 06:54:00,
2013-07-02 03:09:00,71.3,70.0,29.99,South,190,3.0,6.0,97,0.00,,,0.60,weatherlink.com 1.10,2013-07-02 07:09:00,
2013-07-02 03:24:00,71.4,71.0,29.99,South,184,3.0,7.0,97,0.00,,,0.60,weatherlink.com 1.10,2013-07-02 07:24:00,
2013-07-02 03:39:00,71.5,71.0,29.99,SSW,206,5.0,9.0,97,0.00,,,0.60,weatherlink.com 1.10,2013-07-02 07:39:00,
2013-07-02 03:54:00,71.5,71.0,30.00,SSW,193,4.0,9.0,97,0.00,,,0.60,weatherlink.com 1.10,2013-07-02 07:54:00,
2013-07-02 04:09:00,71.5,71.0,30.00,South,190,5.0,7.0,97,0.00,,,0.60,weatherlink.com 1.10,2013-07-02 08:09:00,
2013-07-02 04:24:00,71.5,71.0,30.00,SSW,192,2.0,7.0,97,0.00,,,0.00,weatherlink.com 1.10,2013-07-02 08:24:00,
2013-07-02 04:39:00,71.5,71.0,30.00,South,190,5.0,8.0,97,0.00,,,0.00,weatherlink.com 1.10,2013-07-02 08:39:00,
2013-07-02 04:54:00,71.5,71.0,30.01,South,190,4.0,9.0,97,0.00,,,0.00,weatherlink.com 1.10,2013-07-02 08:54:00,
2013-07-02 05:10:00,71.4,71.0,30.01,SSW,192,4.0,7.0,97,0.00,,,0.00,weatherlink.com 1.10,2013-07-02 09:10:00,
2013-07-02 05:25:00,71.4,71.0,30.02,SSW,198,3.0,7.0,97,0.00,,,0.00,weatherlink.com 1.10,2013-07-02 09:25:00,
2013-07-02 05:40:00,71.4,71.0,30.02,SSW,207,4.0,7.0,97,0.00,,,0.00,weatherlink.com 1.10,2013-07-02 09:40:00,
2013-07-02 05:55:00,71.4,71.0,30.03,SSW,211,4.0,7.0,97,0.00,,,0.00,weatherlink.com 1.10,2013-07-02 09:55:00,
2013-07-02 06:10:00,71.3,70.0,30.03,SSW,196,3.0,8.0,97,0.01,,,0.01,weatherlink.com 1.10,2013-07-02 10:10:00,
2013-07-02 06:25:00,71.4,71.0,30.03,SSW,207,3.0,6.0,97,0.01,,,0.01,weatherlink.com 1.10,2013-07-02 10:25:00,
2013-07-02 06:40:00,71.3,70.0,30.03,South,178,3.0,7.0,97,0.03,,,0.03,weatherlink.com 1.10,2013-07-02 10:40:00,
2013-07-02 06:55:00,71.3,70.0,30.03,SW,215,3.0,7.0,97,0.05,,,0.05,weatherlink.com 1.10,2013-07-02 10:55:00,
2013-07-02 07:10:00,71.7,71.0,30.04,SW,217,6.0,7.0,98,0.06,,,0.07,weatherlink.com 1.10,2013-07-02 11:10:00,
2013-07-02 07:25:00,72.0,71.0,30.04,SSW,203,5.0,9.0,98,0.07,,,0.08,weatherlink.com 1.10,2013-07-02 11:25:00,
2013-07-02 07:40:00,72.2,71.0,30.04,South,189,4.0,10.0,97,0.05,,,0.08,weatherlink.com 1.10,2013-07-02 11:40:00,
2013-07-02 07:55:00,72.6,72.0,30.04,SSW,211,4.0,9.0,98,0.03,,,0.08,weatherlink.com 1.10,2013-07-02 11:55:00,
2013-07-02 08:10:00,73.1,73.0,30.05,SSE,157,2.0,9.0,98,0.01,,,0.08,weatherlink.com 1.10,2013-07-02 12:10:00,
2013-07-02 08:25:00,74.5,74.0,30.05,SSW,209,7.0,9.0,97,0.00,,,0.08,weatherlink.com 1.10,2013-07-02 12:25:00,
2013-07-02 08:40:00,74.8,73.0,30.05,SW,219,4.0,10.0,94,0.00,,,0.08,weatherlink.com 1.10,2013-07-02 12:40:00,
2013-07-02 08:55:00,74.4,73.0,30.06,SSW,212,5.0,9.0,94,0.00,,,0.08,weatherlink.com 1.10,2013-07-02 12:55:00,
2013-07-02 09:10:00,74.2,72.0,30.05,SW,215,4.0,7.0,94,0.00,,,0.08,weatherlink.com 1.10,2013-07-02 13:10:00,
2013-07-02 09:25:00,74.2,72.0,30.06,SSW,209,6.0,7.0,94,0.00,,,0.08,weatherlink.com 1.10,2013-07-02 13:25:00,
2013-07-02 09:40:00,74.3,73.0,30.06,SW,225,2.0,6.0,94,0.00,,,0.08,weatherlink.com 1.10,2013-07-02 13:40:00,
2013-07-02 09:55:00,74.8,73.0,30.06,SW,229,4.0,8.0,94,0.00,,,0.08,weatherlink.com 1.10,2013-07-02 13:55:00,
2013-07-02 10:10:00,74.6,73.0,30.06,West,267,8.0,10.0,93,0.00,,,0.08,weatherlink.com 1.10,2013-07-02 14:10:00,
2013-07-02 10:25:00,74.8,73.0,30.06,SSW,203,4.0,11.0,93,0.00,,,0.08,weatherlink.com 1.10,2013-07-02 14:25:00,
2013-07-02 10:40:00,75.7,74.0,30.06,South,180,6.0,8.0,93,0.00,,,0.08,weatherlink.com 1.10,2013-07-02 14:40:00,
2013-07-02 10:55:00,76.4,74.0,30.07,SW,227,7.0,11.0,91,0.00,,,0.08,weatherlink.com 1.10,2013-07-02 14:55:00,
2013-07-02 11:10:00,77.1,74.0,30.07,SW,229,6.0,13.0,90,0.00,,,0.08,weatherlink.com 1.10,2013-07-02 15:10:00,
2013-07-02 11:25:00,77.4,74.0,30.07,SW,225,6.0,12.0,89,0.00,,,0.08,weatherlink.com 1.10,2013-07-02 15:25:00,
2013-07-02 11:40:00,78.8,74.0,30.07,West,271,4.0,9.0,86,0.00,,,0.08,weatherlink.com 1.10,2013-07-02 15:40:00,
2013-07-02 11:55:00,78.7,74.0,30.06,SW,231,12.0,14.0,85,0.00,,,0.08,weatherlink.com 1.10,2013-07-02 15:55:00,
2013-07-02 12:10:00,79.2,75.0,30.07,SW,236,6.0,12.0,86,0.00,,,0.08,weatherlink.com 1.10,2013-07-02 16:10:00,
2013-07-02 12:25:00,78.9,74.0,30.07,SSW,196,7.0,14.0,84,0.00,,,0.08,weatherlink.com 1.10,2013-07-02 16:25:00,
2013-07-02 12:41:00,79.8,74.0,30.07,SSW,198,11.0,12.0,82,0.00,,,0.08,weatherlink.com 1.10,2013-07-02 16:41:00,
2013-07-02 12:56:00,79.4,74.0,30.07,SSW,212,7.0,11.0,83,0.00,,,0.08,weatherlink.com 1.10,2013-07-02 16:56:00,
2013-07-02 13:11:00,80.4,74.0,30.06,WSW,244,8.0,15.0,81,0.00,,,0.08,weatherlink.com 1.10,2013-07-02 17:11:00,
2013-07-02 13:26:00,81.4,75.0,30.06,SW,221,9.0,13.0,82,0.00,,,0.08,weatherlink.com 1.10,2013-07-02 17:26:00,
2013-07-02 13:41:00,82.0,75.0,30.06,SSW,199,5.0,13.0,79,0.00,,,0.08,weatherlink.com 1.10,2013-07-02 17:41:00,
2013-07-02 13:56:00,83.4,77.0,30.05,SW,236,6.0,11.0,80,0.00,,,0.08,weatherlink.com 1.10,2013-07-02 17:56:00,
2013-07-02 14:11:00,82.8,75.0,30.04,SW,222,7.0,15.0,76,0.01,,,0.09,weatherlink.com 1.10,2013-07-02 18:11:00,
2013-07-02 14:26:00,81.8,75.0,30.04,SSW,200,7.0,11.0,79,0.01,,,0.09,weatherlink.com 1.10,2013-07-02 18:26:00,
2013-07-02 14:41:00,81.3,75.0,30.04,SW,235,14.0,14.0,81,0.01,,,0.09,weatherlink.com 1.10,2013-07-02 18:41:00,
2013-07-02 14:56:00,81.8,75.0,30.04,SSW,200,5.0,15.0,80,0.00,,,0.09,weatherlink.com 1.10,2013-07-02 18:56:00,
2013-07-02 15:11:00,82.3,75.0,30.04,South,180,6.0,14.0,78,0.00,,,0.09,weatherlink.com 1.10,2013-07-02 19:11:00,
2013-07-02 15:26:00,80.9,75.0,30.04,South,184,7.0,15.0,81,0.00,,,0.09,weatherlink.com 1.10,2013-07-02 19:26:00,
2013-07-02 15:41:00,82.1,75.0,30.03,SSW,211,7.0,15.0,79,0.00,,,0.09,weatherlink.com 1.10,2013-07-02 19:41:00,
2013-07-02 15:56:00,82.4,74.0,30.03,WSW,247,8.0,16.0,75,0.00,,,0.09,weatherlink.com 1.10,2013-07-02 19:56:00,
2013-07-02 16:11:00,82.1,75.0,30.03,SW,220,9.0,13.0,78,0.00,,,0.09,weatherlink.com 1.10,2013-07-02 20:11:00,
2013-07-02 16:26:00,82.6,74.0,30.02,SW,236,7.0,15.0,76,0.00,,,0.09,weatherlink.com 1.10,2013-07-02 20:26:00,
2013-07-02 16:41:00,82.8,74.0,30.02,SW,221,7.0,13.0,75,0.00,,,0.09,weatherlink.com 1.10,2013-07-02 20:41:00,
2013-07-02 16:56:00,82.2,74.0,30.02,SW,223,7.0,11.0,77,0.00,,,0.09,weatherlink.com 1.10,2013-07-02 20:56:00,
2013-07-02 17:11:00,81.9,75.0,30.02,SW,215,8.0,9.0,79,0.00,,,0.09,weatherlink.com 1.10,2013-07-02 21:11:00,
2013-07-02 17:26:00,82.6,75.0,30.02,SSW,202,6.0,12.0,77,0.00,,,0.09,weatherlink.com 1.10,2013-07-02 21:26:00,
2013-07-02 17:41:00,82.1,74.0,30.02,SW,214,4.0,15.0,77,0.00,,,0.09,weatherlink.com 1.10,2013-07-02 21:41:00,
2013-07-02 17:56:00,81.6,75.0,30.03,SW,231,7.0,10.0,79,0.00,,,0.09,weatherlink.com 1.10,2013-07-02 21:56:00,
2013-07-02 18:11:00,80.9,74.0,30.04,SW,216,8.0,9.0,79,0.00,,,0.09,weatherlink.com 1.10,2013-07-02 22:11:00,
2013-07-02 18:26:00,80.3,74.0,30.04,SW,219,8.0,10.0,81,0.00,,,0.09,weatherlink.com 1.10,2013-07-02 22:26:00,
2013-07-02 18:41:00,79.7,73.0,30.04,South,180,7.0,14.0,80,0.00,,,0.09,weatherlink.com 1.10,2013-07-02 22:41:00,
2013-07-02 18:56:00,79.3,73.0,30.04,SSW,213,5.0,8.0,82,0.00,,,0.09,weatherlink.com 1.10,2013-07-02 22:56:00,
2013-07-02 19:11:00,78.8,73.0,30.05,SW,229,7.0,10.0,83,0.00,,,0.09,weatherlink.com 1.10,2013-07-02 23:11:00,
2013-07-02 19:26:00,78.3,73.0,30.05,SSW,212,4.0,9.0,84,0.00,,,0.09,weatherlink.com 1.10,2013-07-02 23:26:00,
2013-07-02 19:41:00,77.7,73.0,30.05,SSW,194,5.0,11.0,85,0.00,,,0.09,weatherlink.com 1.10,2013-07-02 23:41:00,
2013-07-02 19:56:00,77.1,73.0,30.05,SSW,209,4.0,8.0,87,0.00,,,0.09,weatherlink.com 1.10,2013-07-02 23:56:00,
2013-07-02 20:11:00,76.6,73.0,30.05,SW,221,7.0,8.0,88,0.00,,,0.09,weatherlink.com 1.10,2013-07-03 00:11:00,
2013-07-02 20:26:00,76.2,73.0,30.06,SSW,204,6.0,7.0,89,0.00,,,0.09,weatherlink.com 1.10,2013-07-03 00:26:00,
2013-07-02 20:41:00,75.8,73.0,30.06,South,171,6.0,8.0,90,0.00,,,0.09,weatherlink.com 1.10,2013-07-03 00:41:00,
2013-07-02 20:56:00,75.6,73.0,30.07,SW,220,5.0,9.0,91,0.00,,,0.09,weatherlink.com 1.10,2013-07-03 00:56:00,
2013-07-02 21:11:00,75.4,73.0,30.07,SSW,196,5.0,7.0,91,0.00,,,0.09,weatherlink.com 1.10,2013-07-03 01:11:00,
2013-07-02 21:26:00,75.3,73.0,30.08,SW,216,5.0,8.0,92,0.00,,,0.09,weatherlink.com 1.10,2013-07-03 01:26:00,
2013-07-02 21:41:00,75.1,73.0,30.09,SW,219,4.0,7.0,93,0.00,,,0.09,weatherlink.com 1.10,2013-07-03 01:41:00,
2013-07-02 21:56:00,74.9,73.0,30.09,SSW,205,3.0,8.0,93,0.00,,,0.09,weatherlink.com 1.10,2013-07-03 01:56:00,
2013-07-02 22:26:00,74.5,73.0,30.10,SSW,205,3.0,6.0,94,0.00,,,0.09,weatherlink.com 1.10,2013-07-03 02:26:00,
2013-07-02 22:41:00,74.3,73.0,30.09,SSW,210,5.0,7.0,94,0.00,,,0.09,weatherlink.com 1.10,2013-07-03 02:41:00,
2013-07-02 22:56:00,74.0,72.0,30.09,SSW,196,6.0,7.0,94,0.00,,,0.09,weatherlink.com 1.10,2013-07-03 02:56:00,
2013-07-02 23:26:00,73.6,72.0,30.09,SSW,211,4.0,7.0,95,0.00,,,0.09,weatherlink.com 1.10,2013-07-03 03:26:00,
2013-07-02 23:41:00,73.5,72.0,30.09,SW,215,4.0,9.0,95,0.00,,,0.09,weatherlink.com 1.10,2013-07-03 03:41:00,